Regional Weather Roundup
Issued by NWS

Home | Current Version | Previous Version | Graphics & Text | Print | Product List | Glossary On
Versions: 1 2 3 4 5 6 7 8 9 10 11 12 13 14 15 16 17 18 19 20 21 22 23 24 25 26 27
000
ASUS45 KPSR 202110
RWRAZ

ARIZONA HOURLY REGIONAL WEATHER ROUNDUP
NATIONAL WEATHER SERVICE PHOENIX AZ
200 PM MST TUE FEB 20 2018

NOTE: FAIR INDICATES FEW OR NO CLOUDS BELOW 12,000 FEET WITH NO
SIGNIFICANT WEATHER AND/OR OBSTRUCTIONS TO VISIBILITY.

AZZ001>003-036-202200-
NORTHWEST ARIZONA

CITY           SKY/WX    TMP DP  RH WIND       PRES   REMARKS
BULLHEAD CITY  FAIR      54   0  11 N13       30.13F
KINGMAN        FAIR      44   7  21 VRB5      30.06F
$$

AZZ004>008-015-016-018-202200-
NORTH CENTRAL ARIZONA

CITY           SKY/WX    TMP DP  RH WIND       PRES   REMARKS
GRAND CANYON   MIX PCPN  25   3  38 W9        29.97F WCI  15
WILLIAMS       FAIR      27   0  31 W14G22    29.95F WCI  15
PRESCOTT       FAIR      37  -2  19 CALM      30.00F
FLAGSTAFF      FAIR      28  -5  23 W8G20     29.94S WCI  20
PAYSON         FAIR      37   7  28 W8G14     29.99F WCI  31
PAGE           PTSUNNY   37   3  24 MISG      30.00F
$$

AZZ009>014-017-202200-
NORTHEAST ARIZONA

CITY           SKY/WX    TMP DP  RH WIND       PRES   REMARKS
WINSLOW        FAIR      42  -5  13 VRB6      29.98F
SAINT JOHNS    PTSUNNY   35  26  69 NW12G18   29.96S WCI  27
WINDOW ROCK    FAIR      31   8  38 SW15G22   29.93F WCI  20
SHOW LOW       LGT SNOW  30  23  74 S12       29.97F WCI  21
$$

AZZ540-542>544-546-548-202200-
GREATER PHOENIX AREA

CITY           SKY/WX    TMP DP  RH WIND       PRES   REMARKS
PHOENIX        FAIR      58  13  17 SW9       30.04F
BUCKEYE        FAIR      55   9  15 CALM      30.07F
GLENDALE       SUNNY     57  12  17 CALM      30.07F
LUKE AFB       FAIR      57  13  17 SE3       30.03F
DEER VALLEY    FAIR      54   9  16 MISG      30.03F
SCOTTSDALE     FAIR      55  12  18 MISG      30.05F
MESA-FALCON    MOSUNNY   55  12  18 W12G17    30.06F
MESA-GATEWAY   MOSUNNY   55  10  16 W12       30.06F
CHANDLER       SUNNY     55  10  16 W7        30.06F
$$

AZZ539-553-202200-
SOUTHWEST MARICOPA COUNTY AND PINAL COUNTY

CITY           SKY/WX    TMP DP  RH WIND       PRES   REMARKS
CASA GRANDE      N/A     55  14  19 W8        30.06F
GILA BEND      FAIR      56  12  17 CALM      30.07F
$$

AZZ503-504-507>509-202200-
SOUTHEAST ARIZONA

CITY           SKY/WX    TMP DP  RH WIND       PRES   REMARKS
TUCSON         CLOUDY    52  26  36 NW9       30.04F
DAVIS-MONTHAN  CLOUDY    51  28  40 NW8G18    30.02F
RYAN FIELD     PTSUNNY   54  27  35 N6        30.05F
NOGALES        PTSUNNY   54  29  38 SW14G21   29.99F
SIERRA VISTA   PTSUNNY   49  31  49 SW6       29.99F
DOUGLAS        PTSUNNY   55  30  38 SW22G32   29.95F
SAFFORD        CLOUDY    52  24  33 NW14      29.98F
$$

AZZ532-202200-
SOUTHWEST ARIZONA

CITY           SKY/WX    TMP DP  RH WIND       PRES   REMARKS
YUMA           FAIR      60   7  12 VRB6      30.10F
$$

CAZ041-043-047-048-061-525>527-560>570-202200-
SOUTHERN CALIFORNIA

CITY           SKY/WX    TMP DP  RH WIND       PRES   REMARKS
DOWNTOWN L.A.  FAIR      59   5  11 MISG      30.11F
L.A. AIRPORT   FAIR      58  13  17 W9        30.12F
SAN DIEGO      FAIR      58  14  17 W14       30.14F
BURBANK        FAIR      55   8  15 SE8       30.10F
ONTARIO        FAIR      55   7  14 CALM      30.09F
RIVERSIDE      FAIR      57   6  13 VRB5      30.09F
PALM SPRINGS   FAIR      60   3  10 E5        30.13F
EL CENTRO NAS  FAIR      60   5  11 MISG      30.14F
IMPERIAL       FAIR      61   3  10 NE7       30.11F
BLYTHE         FAIR      58   1  10 N15       30.11F
NEEDLES        FAIR      58   2  10 N13       30.12F
$$

NVZ020-UTZ003-202200-
SOUTHERN NEVADA-UTAH

CITY           SKY/WX    TMP DP  RH WIND       PRES   REMARKS
LAS VEGAS      FAIR      46   0  14 NW5       30.12F
SALT LAKE CITY PTSUNNY   25  11  55 N8        30.10R WCI  16
$$

NMZ009-TXZ055-202200-
NEW MEXICO-WEST TEXAS

CITY           SKY/WX    TMP DP  RH WIND       PRES   REMARKS
ALBUQUERQUE    PTSUNNY   37  15  40 CALM      29.96S
EL PASO        PTSUNNY   63  34  33 W8        29.89F
$$


........................KEY........................
SKY/WX - SKY CONDITION/WEATHER
TMP    - TEMPERATURE IN FAHRENHEIT
DP     - DEW POINT IN FAHRENHEIT
RH     - RELATIVE HUMIDITY IN PERCENT
WIND   - DIRECTION AND SPEED IN MILES PER HOUR (MPH)
VRB    - VARIABLE WIND DIRECTION
PRES   - MEAN SEA LEVEL PRESSURE IN INCHES OF MERCURY
         F - FALLING PRESSURE   R - RISING PRESSURE
         S - STEADY PRESSURE
VSB    - VISIBILITY IN MILES
HX     - HEAT INDEX IN FAHRENHEIT
WCI    - WIND CHILL INDEX IN FAHRENHEIT
TC     - TEMPERATURE IN CELSIUS WHICH IS ALSO KNOWN AS
         TEMPERATURE IN CENTIGRADE
AFB    - AIR FORCE BASE
         LUKE AFB IS LUKE AIR FORCE BASE
         DAVIS-MONTHAN IS DAVIS-MONTHAN AIR FORCE BASE
NAS    - NAVAL AIR STATION
         EL CENTRO NAS IS EL CENTRO NAVAL AIR STATION
N/A    - NOT AVAILABLE





USA.gov is the U.S. government's official web portal to all federal, state and local government web resources and services.